TimeCST,TemperatureF,Dew PointF,Humidity,Sea Level PressureIn,VisibilityMPH,Wind Direction,Wind SpeedMPH,Gust SpeedMPH,PrecipitationIn,Events,Conditions,WindDirDegrees,DateUTC
12:14 AM,10.4,6.8,85,30.28,7.0,NE,4.6,-,N/A,,Clear,40,2013-12-14 06:14:00
12:34 AM,10.4,6.8,85,30.28,10.0,NE,5.8,-,N/A,,Mostly Cloudy,50,2013-12-14 06:34:00
12:53 AM,10.4,6.8,85,30.27,10.0,NNE,5.8,-,N/A,,Scattered Clouds,20,2013-12-14 06:53:00
1:14 AM,10.4,6.8,85,30.27,7.0,NNE,5.8,-,N/A,Snow,Light Snow,30,2013-12-14 07:14:00
1:34 AM,10.4,6.8,85,30.27,7.0,NNE,4.6,-,N/A,Snow,Light Snow,20,2013-12-14 07:34:00
1:53 AM,10.4,6.8,85,30.26,10.0,NNE,5.8,-,N/A,Snow,Light Snow,20,2013-12-14 07:53:00
2:14 AM,10.4,6.8,85,30.26,10.0,NNE,4.6,-,N/A,,Mostly Cloudy,20,2013-12-14 08:14:00
2:33 AM,10.4,6.8,85,30.26,10.0,NNE,5.8,-,N/A,Snow,Light Snow,20,2013-12-14 08:33:00
2:54 AM,10.4,6.8,85,30.26,10.0,NNE,5.8,-,N/A,Snow,Light Snow,20,2013-12-14 08:54:00
3:13 AM,10.4,6.8,85,30.25,4.0,NNE,4.6,-,N/A,Snow,Light Snow,30,2013-12-14 09:13:00
3:33 AM,10.4,6.8,85,30.24,7.0,NNE,3.5,-,N/A,Snow,Light Snow,20,2013-12-14 09:33:00
3:54 AM,10.4,6.8,85,30.24,10.0,North,3.5,-,N/A,,Scattered Clouds,10,2013-12-14 09:54:00
4:13 AM,10.4,6.8,85,30.25,10.0,North,5.8,-,N/A,Snow,Light Snow,360,2013-12-14 10:13:00
4:33 AM,10.4,6.8,85,30.25,10.0,North,5.8,-,N/A,Snow,Light Snow,10,2013-12-14 10:33:00
4:54 AM,10.4,6.8,85,30.24,10.0,North,4.6,-,N/A,,Overcast,360,2013-12-14 10:54:00
5:13 AM,10.4,6.8,85,30.24,10.0,NNE,4.6,-,N/A,,Overcast,20,2013-12-14 11:13:00
5:34 AM,10.4,6.8,85,30.24,10.0,Calm,Calm,-,N/A,,Overcast,0,2013-12-14 11:34:00
5:53 AM,10.4,6.8,85,30.24,10.0,North,5.8,-,N/A,,Overcast,360,2013-12-14 11:53:00
6:14 AM,10.4,6.8,85,30.25,10.0,NNW,4.6,-,N/A,,Overcast,340,2013-12-14 12:14:00
6:34 AM,10.4,6.8,85,30.24,10.0,North,3.5,-,N/A,Snow,Light Snow,350,2013-12-14 12:34:00
6:53 AM,10.4,5.0,79,30.23,10.0,Calm,Calm,-,N/A,Snow,Light Snow,0,2013-12-14 12:53:00
7:14 AM,10.4,6.8,85,30.23,10.0,Calm,Calm,-,N/A,Snow,Light Snow,0,2013-12-14 13:14:00
7:34 AM,10.4,6.8,85,30.23,10.0,Calm,Calm,-,N/A,,Overcast,0,2013-12-14 13:34:00
7:53 AM,10.4,6.8,85,30.24,10.0,NW,4.6,-,N/A,,Overcast,320,2013-12-14 13:53:00
8:14 AM,10.4,6.8,85,30.24,10.0,NNW,4.6,-,N/A,,Overcast,330,2013-12-14 14:14:00
8:34 AM,10.4,6.8,85,30.23,10.0,NW,4.6,-,N/A,Snow,Light Snow,310,2013-12-14 14:34:00
8:53 AM,10.4,6.8,85,30.23,10.0,NW,6.9,-,N/A,Snow,Light Snow,310,2013-12-14 14:53:00
9:14 AM,10.4,6.8,85,30.24,10.0,NW,6.9,-,N/A,,Mostly Cloudy,310,2013-12-14 15:14:00
9:33 AM,10.4,6.8,85,30.24,10.0,NW,9.2,-,N/A,,Mostly Cloudy,310,2013-12-14 15:33:00
9:53 AM,10.4,6.8,85,30.24,10.0,NW,6.9,-,N/A,Snow,Light Snow,310,2013-12-14 15:53:00
10:14 AM,10.4,6.8,85,30.24,10.0,NW,6.9,-,N/A,Snow,Light Snow,310,2013-12-14 16:14:00
10:33 AM,10.4,6.8,85,30.23,10.0,NW,5.8,-,N/A,Snow,Light Snow,310,2013-12-14 16:33:00
10:54 AM,10.4,6.8,85,30.23,10.0,NW,6.9,-,N/A,Snow,Light Snow,310,2013-12-14 16:54:00
11:14 AM,10.4,6.8,85,30.21,3.0,NW,4.6,-,N/A,Snow,Light Snow,310,2013-12-14 17:14:00
11:33 AM,10.4,6.8,85,30.20,2.0,Calm,Calm,-,N/A,Snow,Light Snow,0,2013-12-14 17:33:00
11:54 AM,12.2,6.8,79,30.19,3.0,WNW,3.5,-,N/A,Snow,Light Snow,300,2013-12-14 17:54:00
12:14 PM,12.2,6.8,79,30.18,10.0,West,5.8,-,N/A,Snow,Light Snow,260,2013-12-14 18:14:00
12:33 PM,12.2,6.8,79,30.17,10.0,West,6.9,-,N/A,,Mostly Cloudy,270,2013-12-14 18:33:00
12:54 PM,14.0,6.8,73,30.15,10.0,West,9.2,-,N/A,,Overcast,280,2013-12-14 18:54:00
1:13 PM,15.8,6.8,68,30.16,10.0,WNW,11.5,-,N/A,,Overcast,290,2013-12-14 19:13:00
1:34 PM,15.8,6.8,68,30.15,10.0,WNW,10.4,-,N/A,Snow,Light Snow,300,2013-12-14 19:34:00
1:54 PM,14.0,6.8,73,30.14,10.0,WNW,10.4,-,N/A,Snow,Light Snow,300,2013-12-14 19:54:00
2:13 PM,14.0,6.8,73,30.14,10.0,WNW,15.0,19.6,N/A,,Overcast,300,2013-12-14 20:13:00
2:34 PM,12.2,5.0,73,30.14,10.0,WNW,17.3,21.9,N/A,,Overcast,300,2013-12-14 20:34:00
2:54 PM,12.2,3.2,67,30.14,10.0,NW,15.0,-,N/A,,Scattered Clouds,310,2013-12-14 20:54:00
3:13 PM,12.2,3.2,67,30.14,10.0,NW,10.4,-,N/A,,Clear,320,2013-12-14 21:13:00
3:34 PM,10.4,3.2,73,30.15,10.0,NW,10.4,-,N/A,,Clear,320,2013-12-14 21:34:00
3:54 PM,10.4,3.2,73,30.15,10.0,NW,9.2,-,N/A,,Clear,320,2013-12-14 21:54:00
4:13 PM,10.4,3.2,73,30.16,10.0,NW,10.4,-,N/A,,Clear,310,2013-12-14 22:13:00
4:33 PM,10.4,3.2,73,30.16,10.0,NW,9.2,-,N/A,,Clear,320,2013-12-14 22:33:00
4:54 PM,10.4,3.2,73,30.16,10.0,NW,6.9,-,N/A,,Clear,320,2013-12-14 22:54:00
5:13 PM,8.6,3.2,79,30.16,10.0,WNW,4.6,-,N/A,,Scattered Clouds,300,2013-12-14 23:13:00
5:34 PM,8.6,3.2,79,30.16,10.0,WNW,3.5,-,N/A,,Mostly Cloudy,300,2013-12-14 23:34:00
5:53 PM,8.6,3.2,79,30.16,10.0,NW,4.6,-,N/A,,Overcast,320,2013-12-14 23:53:00
6:13 PM,10.4,5.0,79,30.17,10.0,North,10.4,-,N/A,,Scattered Clouds,360,2013-12-15 00:13:00
6:34 PM,10.4,3.2,73,30.16,10.0,North,9.2,-,N/A,,Clear,360,2013-12-15 00:34:00
6:53 PM,8.6,3.2,79,30.16,10.0,North,10.4,-,N/A,,Clear,350,2013-12-15 00:53:00
7:14 PM,8.6,1.4,73,30.16,10.0,North,11.5,-,N/A,,Clear,350,2013-12-15 01:14:00
7:33 PM,8.6,1.4,73,30.16,10.0,North,9.2,-,N/A,,Clear,350,2013-12-15 01:33:00
7:54 PM,8.6,1.4,73,30.16,10.0,North,8.1,-,N/A,,Clear,350,2013-12-15 01:54:00
8:13 PM,8.6,1.4,73,30.16,10.0,North,8.1,-,N/A,,Clear,360,2013-12-15 02:13:00
8:34 PM,8.6,1.4,73,30.16,10.0,North,9.2,-,N/A,,Clear,350,2013-12-15 02:34:00
8:54 PM,8.6,1.4,73,30.15,10.0,North,8.1,-,N/A,,Clear,350,2013-12-15 02:54:00
9:13 PM,8.6,1.4,73,30.15,10.0,North,5.8,-,N/A,,Clear,10,2013-12-15 03:13:00
9:34 PM,6.8,-0.4,72,30.15,10.0,North,5.8,-,N/A,,Clear,360,2013-12-15 03:34:00
9:54 PM,6.8,-0.4,72,30.17,10.0,North,10.4,-,N/A,,Clear,360,2013-12-15 03:54:00
10:13 PM,5.0,-0.4,78,30.17,10.0,North,10.4,-,N/A,,Scattered Clouds,360,2013-12-15 04:13:00
10:34 PM,5.0,-0.4,78,30.17,10.0,North,12.7,-,N/A,,Mostly Cloudy,360,2013-12-15 04:34:00
10:54 PM,5.0,-2.2,72,30.16,10.0,North,13.8,-,N/A,,Overcast,360,2013-12-15 04:54:00
11:13 PM,5.0,-0.4,78,30.16,10.0,North,11.5,-,N/A,,Overcast,10,2013-12-15 05:13:00
11:33 PM,3.2,-2.2,78,30.17,10.0,North,13.8,-,N/A,,Overcast,350,2013-12-15 05:33:00
11:54 PM,3.2,-2.2,78,30.18,10.0,North,11.5,-,N/A,,Overcast,360,2013-12-15 05:54:00